Wind_Speed
9 9 9 9 10 9 9 8 8 8 8 9 12 15 19 22 24 22 18 17 15 13 9 5 2 7 9 12 11 10 6 10 9 9 8 8 4 4 5 6 2 2 6 9 9
9 9 10 10 10 10 9 9 8 8 7 7 10 13 17 21 25 25 23 20 17 16 12 8 1 3 6 9 9 5 7 9 8 4 5 8 5 6 8 6 6 0 2 7 9
10 10 11 11 11 10 10 9 8 8 6 6 8 12 15 19 21 28 26 22 19 17 14 11 8 1 2 5 5 5 6 9 7 8 7 5 7 5 5 3 2 1 2 7 12
10 11 11 12 12 12 11 9 8 8 7 6 6 9 14 18 14 27 29 25 22 19 16 13 9 4 2 4 4 6 8 8 6 9 6 5 6 5 5 6 4 2 6 9 13
11 11 11 12 12 13 12 10 9 9 8 7 7 8 13 19 24 21 31 28 24 21 16 12 9 7 5 4 5 5 5 6 7 9 8 4 3 2 3 6 6 6 7 12 13
11 11 11 11 12 13 13 11 10 10 8 8 7 8 11 16 22 17 30 31 27 22 18 15 11 10 7 5 4 6 3 5 5 7 7 6 6 2 1 2 4 6 7 11 13
12 12 11 11 11 12 12 11 11 10 10 9 8 8 10 17 21 22 28 32 29 25 20 18 16 12 9 6 5 3 1 2 5 5 6 8 5 1 2 3 2 3 7 10 12
11 13 12 11 11 12 10 9 11 10 10 10 10 9 11 13 16 25 24 29 31 29 26 22 19 14 11 10 5 3 5 7 6 4 4 6 3 8 4 3 4 2 5 10 13
9 10 12 12 11 11 9 8 9 10 10 10 10 10 11 13 16 21 24 25 29 30 27 24 20 15 13 12 11 7 7 3 2 4 3 5 6 12 8 5 7 4 6 8 15
9 9 9 9 10 9 8 7 7 9 10 10 10 8 12 16 16 18 25 24 24 25 24 24 20 20 20 17 17 7 9 3 2 3 3 6 8 11 9 7 6 9 7 10 10
9 9 8 7 9 8 7 6 6 8 10 11 9 17 12 14 15 19 23 23 21 18 21 20 24 27 22 22 16 10 9 8 2 3 3 6 7 6 10 8 8 13 12 11 12
8 9 8 7 7 7 6 5 5 6 6 8 13 12 12 16 14 17 20 20 17 19 19 17 28 24 22 20 19 17 14 14 11 4 6 9 11 8 8 9 6 8 14 14 16
8 8 8 6 6 6 5 4 5 4 3 2 8 14 15 14 11 13 18 17 17 19 17 23 14 23 22 22 22 23 20 15 9 11 11 10 17 8 9 10 10 8 13 17 17
7 7 7 6 5 5 4 4 4 3 5 0 3 8 14 13 9 12 16 13 12 16 18 18 20 19 21 25 23 25 20 17 11 9 13 6 17 8 7 11 10 12 7 18 19
7 6 6 6 5 5 6 4 5 10 5 3 4 9 15 15 11 13 14 13 9 12 15 16 18 19 20 23 23 24 18 16 15 14 16 17 12 14 8 8 8 12 10 12 18
7 6 6 5 5 6 6 6 8 2 4 3 4 7 17 9 9 13 13 13 11 7 9 12 14 16 22 16 21 20 17 16 17 18 20 20 13 17 9 6 7 10 11 10 17
7 6 7 4 4 7 8 7 2 4 7 5 6 9 13 10 7 10 14 14 9 9 10 10 14 11 12 20 17 18 21 21 17 17 14 11 11 18 11 13 10 9 11 8 15
8 6 7 4 5 8 9 7 4 4 6 6 7 9 9 15 9 7 12 13 14 9 4 8 11 16 16 18 20 21 22 22 14 13 18 9 13 20 10 10 9 13 13 12 13
8 6 6 6 7 10 12 7 3 6 5 4 8 11 9 10 9 11 10 10 10 12 7 5 6 6 10 16 18 16 22 22 24 13 13 10 8 14 14 11 10 12 10 9 10
7 5 6 7 9 12 11 8 4 11 9 9 8 10 11 9 10 11 9 6 9 12 12 4 5 4 6 15 18 22 14 19 21 15 15 18 12 15 11 13 9 10 10 8 17
7 4 5 7 9 13 9 8 10 12 8 4 4 9 10 12 10 9 9 6 7 6 13 9 8 4 7 15 17 18 18 18 16 23 15 12 14 11 9 10 11 11 10 7 10
4 2 5 8 11 13 9 10 14 10 8 7 10 8 9 10 10 8 10 5 4 8 12 13 7 9 11 8 15 14 22 21 20 19 19 22 22 12 15 16 14 12 10 11 5
3 5 6 9 5 8 10 9 14 8 8 6 5 10 9 9 9 10 8 7 5 5 5 11 7 10 10 10 14 17 18 18 20 19 16 13 18 14 16 19 15 18 12 9 8
3 2 8 10 10 9 7 8 8 14 11 13 10 10 7 8 8 10 8 7 5 3 1 8 8 10 12 6 5 19 21 19 20 22 20 22 17 16 15 13 11 14 16 11 9
5 8 9 8 9 8 8 7 8 7 11 14 11 7 8 9 9 9 10 7 7 6 4 4 10 8 11 11 10 14 17 23 22 22 22 17 9 12 13 12 13 15 15 13 11
6 8 10 12 10 13 9 8 9 8 9 9 10 7 13 9 8 9 6 8 7 6 6 7 10 9 13 11 10 14 18 19 19 18 15 15 16 14 12 14 19 18 15 7 8
6 8 11 11 10 10 12 10 11 13 13 11 9 8 8 10 17 16 14 13 12 10 9 10 14 14 19 10 13 15 18 21 21 19 17 16 14 14 17 15 20 20 16 7 7
Wind_Direction
273 274 275 275 275 275 274 272 270 265 256 242 226 218 211 207 203 197 199 200 194 184 191 187 165 29 15 12 8 39 28 32 20 29 22 39 25 29 358 355 32 71 128 178 181
278 277 277 276 275 276 275 271 268 266 259 247 228 218 211 208 205 201 201 205 199 190 199 186 201 32 5 4 23 30 31 357 340 360 20 46 47 23 21 23 31 3 170 165 166
272 273 275 275 277 275 274 273 269 265 255 248 230 214 210 206 205 210 202 206 204 199 203 200 197 192 353 343 4 357 8 6 347 340 357 45 48 40 52 21 293 4 122 164 161
279 275 273 272 271 272 270 268 266 263 254 241 230 212 206 201 197 209 203 204 207 204 206 207 207 230 274 336 336 16 351 6 339 350 0 31 56 65 70 54 66 39 127 147 162
283 281 277 272 269 267 265 264 263 259 251 241 225 211 202 204 206 202 202 203 207 206 210 208 218 221 239 298 325 335 326 328 324 335 349 356 43 63 45 55 73 58 132 142 160
279 279 279 277 273 270 267 262 259 255 249 240 224 210 204 208 207 205 201 203 207 208 213 214 216 224 233 272 321 320 290 319 6 331 333 334 347 2 259 57 58 82 130 143 162
277 277 276 277 277 273 269 266 256 250 247 238 229 211 208 212 208 204 201 203 206 207 214 219 223 226 233 252 283 300 304 17 353 344 329 336 355 29 339 202 97 92 140 153 164
284 275 275 276 277 277 276 266 255 248 243 237 227 211 213 213 208 206 204 204 208 211 215 219 224 227 232 243 283 268 279 255 310 323 15 345 9 334 11 227 184 154 152 155 164
301 286 275 272 274 275 278 273 256 246 239 234 227 213 216 211 209 207 205 205 209 215 218 223 225 225 235 236 239 243 269 296 316 147 10 345 343 316 325 331 220 196 189 174 175
303 299 287 275 265 271 269 267 255 241 236 230 220 207 218 210 206 205 205 205 206 212 217 223 224 228 227 222 240 210 244 238 333 309 342 301 305 300 323 303 238 218 205 205 190
297 299 298 278 262 261 255 256 260 251 235 219 204 206 211 202 198 198 201 202 203 206 212 219 221 221 223 225 246 232 244 258 292 357 321 300 310 300 300 303 240 210 218 210 198
293 293 296 286 256 240 246 243 248 243 236 226 216 201 209 197 191 196 198 189 197 206 209 218 226 224 230 234 228 237 243 247 264 276 319 288 295 296 285 324 318 235 207 206 203
293 287 290 289 259 226 226 236 227 228 212 166 202 204 207 191 181 194 190 194 205 207 218 224 234 222 226 227 231 236 241 248 261 284 288 283 285 248 289 319 345 334 219 204 214
301 292 287 285 261 219 212 213 212 170 124 123 163 190 193 179 186 183 181 192 209 216 224 227 225 228 225 229 230 235 234 245 257 274 273 297 293 256 263 294 318 331 304 220 214
305 303 283 269 249 213 203 185 170 150 194 157 160 168 167 150 186 184 181 181 203 213 206 227 223 230 228 228 227 231 241 244 250 261 265 269 259 275 274 275 290 310 303 228 217
291 297 291 270 246 208 191 169 151 167 127 137 131 150 156 159 172 188 182 176 185 189 211 219 225 220 228 228 226 228 240 245 253 257 262 257 246 271 257 273 303 325 326 225 216
301 272 282 273 236 208 185 159 152 254 158 142 136 140 163 165 162 181 187 190 188 189 211 220 228 222 218 219 225 216 228 239 236 235 244 251 247 255 282 286 283 323 321 237 217
307 280 262 256 216 201 183 153 220 167 149 168 159 157 168 187 188 157 180 194 208 200 184 216 198 217 230 215 217 223 223 228 231 239 246 203 253 262 275 293 276 320 323 272 229
307 282 255 233 214 192 176 194 183 164 160 145 152 161 159 188 182 188 192 202 215 212 220 203 227 224 219 218 207 215 224 227 257 248 279 261 249 268 275 290 287 305 313 280 245
308 275 247 220 205 189 177 205 184 174 154 155 177 169 177 173 166 180 180 192 207 212 204 234 256 232 223 203 215 226 243 216 229 254 240 252 247 271 276 292 298 314 311 276 252
304 276 239 208 194 184 195 209 198 185 159 145 155 165 172 168 162 174 173 167 186 201 201 217 241 194 199 208 206 212 223 226 250 226 256 252 253 266 277 286 298 316 311 300 236
285 257 219 194 174 192 206 200 201 197 179 156 164 168 169 174 180 172 172 163 152 195 207 203 246 240 230 212 218 222 220 227 224 232 243 271 280 275 286 285 292 303 299 306 272
250 229 206 185 182 200 216 206 207 206 205 190 182 174 185 177 180 180 171 172 124 106 184 198 231 229 225 226 224 226 226 233 238 247 268 269 272 278 283 286 280 294 284 292 256
224 182 206 203 203 177 193 203 206 217 212 199 198 194 193 196 186 186 182 185 179 168 53 198 247 256 293 322 279 216 226 228 239 239 246 251 272 288 289 282 287 289 290 280 254
224 218 202 217 214 199 189 203 198 203 206 198 206 207 206 202 199 193 202 207 220 231 243 210 263 255 268 275 257 241 244 229 238 246 266 277 274 287 289 293 289 300 307 288 224
236 223 216 218 215 208 213 209 194 208 175 203 194 219 205 205 196 196 202 218 222 243 239 255 272 277 282 271 277 246 239 235 234 238 247 257 276 281 288 280 296 291 317 313 216
262 235 221 232 214 201 218 209 203 193 199 186 187 181 193 214 215 221 222 226 225 224 244 253 267 272 274 277 285 261 247 237 240 232 241 252 270 282 281 295 287 285 306 308 229
Height
3165 3165 3165 3165 3165 3166 3166 3166 3166 3166 3166 3167 3167 3168 3171 3173 3176 3180 3182 3183 3185 3187 3188 3189 3190 3190 3189 3188 3187 3187 3189 3187 3187 3186 3186 3183 3183 3182 3182 3180 3180 3180 3181 3180 3181
3163 3163 3163 3163 3163 3163 3163 3164 3164 3164 3164 3164 3165 3166 3168 3171 3174 3177 3180 3181 3184 3187 3188 3190 3191 3191 3192 3191 3190 3190 3191 3189 3187 3187 3188 3185 3185 3184 3183 3181 3180 3180 3180 3180 3181
3161 3161 3160 3160 3161 3161 3161 3161 3162 3162 3162 3162 3163 3164 3166 3169 3173 3174 3177 3180 3183 3186 3187 3190 3191 3192 3194 3193 3192 3190 3191 3189 3187 3186 3187 3187 3186 3186 3184 3184 3183 3180 3180 3180 3182
3159 3158 3158 3158 3158 3158 3158 3159 3159 3160 3160 3161 3161 3162 3164 3167 3174 3171 3175 3178 3181 3184 3187 3189 3192 3194 3194 3194 3192 3192 3191 3189 3187 3186 3187 3188 3187 3186 3186 3185 3183 3181 3180 3181 3182
3156 3155 3156 3155 3155 3155 3155 3156 3157 3158 3158 3159 3159 3160 3162 3164 3166 3167 3172 3176 3180 3183 3186 3189 3192 3194 3195 3194 3193 3192 3190 3189 3188 3187 3186 3187 3187 3187 3186 3185 3184 3182 3181 3182 3183
3153 3153 3152 3152 3152 3152 3153 3154 3154 3155 3156 3157 3158 3158 3160 3162 3163 3166 3169 3174 3178 3182 3185 3188 3192 3192 3195 3194 3193 3191 3190 3189 3188 3187 3186 3187 3187 3187 3187 3186 3184 3183 3182 3183 3184
3150 3150 3150 3150 3150 3149 3150 3151 3151 3152 3153 3154 3155 3156 3157 3159 3160 3163 3166 3170 3175 3179 3183 3186 3188 3192 3193 3194 3192 3190 3191 3189 3189 3188 3187 3186 3186 3187 3186 3185 3185 3184 3183 3184 3185
3146 3146 3146 3146 3146 3146 3147 3148 3148 3149 3150 3151 3152 3154 3154 3155 3157 3160 3163 3168 3172 3176 3180 3182 3186 3188 3191 3192 3193 3191 3191 3189 3188 3188 3187 3187 3187 3185 3185 3184 3184 3184 3184 3184 3185
3144 3143 3143 3143 3143 3143 3144 3145 3145 3146 3147 3148 3150 3151 3153 3154 3155 3157 3161 3166 3170 3173 3177 3181 3184 3188 3190 3192 3191 3191 3187 3189 3189 3187 3187 3187 3187 3183 3183 3184 3184 3184 3184 3184 3184
3141 3140 3140 3140 3140 3141 3141 3141 3142 3143 3144 3146 3147 3152 3150 3151 3152 3155 3159 3163 3167 3171 3176 3179 3182 3186 3189 3190 3186 3185 3187 3188 3188 3189 3186 3186 3186 3183 3181 3181 3182 3183 3183 3183 3184
3139 3138 3138 3137 3137 3138 3139 3140 3142 3142 3141 3143 3144 3145 3146 3148 3151 3153 3157 3161 3166 3171 3175 3177 3181 3181 3183 3186 3186 3188 3188 3187 3187 3186 3186 3186 3185 3184 3181 3179 3180 3181 3181 3182 3183
3136 3135 3135 3135 3135 3136 3136 3137 3138 3140 3140 3139 3140 3143 3144 3146 3150 3152 3156 3163 3165 3170 3172 3175 3174 3179 3181 3182 3185 3186 3186 3185 3186 3185 3186 3184 3183 3182 3180 3178 3177 3178 3179 3180 3181
3134 3133 3133 3133 3133 3134 3135 3136 3136 3137 3138 3139 3138 3140 3143 3147 3150 3152 3155 3161 3164 3167 3168 3171 3174 3175 3176 3180 3182 3182 3183 3182 3185 3184 3183 3182 3178 3179 3178 3177 3175 3176 3176 3178 3179
3132 3131 3130 3130 3133 3132 3133 3134 3135 3136 3139 3141 3139 3140 3142 3146 3150 3150 3154 3160 3161 3164 3167 3168 3170 3170 3173 3176 3179 3178 3180 3182 3183 3184 3180 3180 3176 3174 3175 3175 3174 3173 3173 3174 3176
3130 3129 3129 3129 3130 3131 3133 3133 3134 3135 3133 3141 3139 3139 3141 3146 3148 3150 3152 3156 3160 3160 3163 3165 3165 3166 3169 3172 3175 3176 3178 3180 3181 3181 3179 3177 3177 3171 3172 3173 3173 3172 3170 3171 3173
3128 3128 3127 3127 3128 3129 3130 3132 3133 3138 3135 3139 3138 3139 3142 3145 3147 3148 3151 3154 3157 3159 3159 3162 3160 3163 3166 3169 3171 3175 3176 3178 3178 3178 3173 3171 3172 3168 3168 3171 3172 3170 3168 3167 3170
3126 3126 3125 3126 3127 3128 3129 3132 3137 3133 3137 3140 3141 3141 3144 3146 3147 3148 3150 3153 3156 3158 3158 3159 3159 3160 3161 3165 3168 3170 3174 3172 3172 3170 3167 3165 3169 3168 3167 3168 3169 3169 3167 3166 3167
3124 3124 3124 3125 3125 3126 3129 3133 3136 3135 3136 3136 3138 3140 3144 3145 3147 3149 3150 3153 3154 3155 3155 3156 3156 3157 3158 3160 3164 3166 3167 3165 3164 3160 3157 3161 3165 3164 3166 3166 3166 3166 3165 3164 3165
3121 3121 3122 3123 3124 3125 3130 3134 3132 3134 3134 3136 3138 3141 3143 3144 3146 3148 3149 3151 3152 3153 3155 3154 3154 3154 3155 3157 3161 3161 3162 3163 3161 3157 3158 3155 3160 3162 3163 3164 3164 3164 3162 3161 3162
3119 3119 3120 3120 3122 3125 3129 3131 3131 3130 3131 3134 3137 3139 3140 3142 3144 3146 3147 3148 3150 3150 3152 3153 3153 3153 3153 3155 3157 3158 3161 3162 3162 3157 3156 3155 3157 3158 3160 3161 3161 3161 3160 3160 3158
3117 3117 3118 3119 3121 3125 3129 3130 3129 3130 3131 3134 3136 3138 3139 3141 3143 3144 3147 3148 3148 3148 3149 3152 3152 3151 3152 3151 3152 3156 3156 3157 3155 3154 3151 3149 3151 3154 3157 3159 3159 3159 3158 3156 3155
3116 3118 3117 3118 3123 3122 3127 3126 3127 3129 3131 3132 3133 3136 3139 3140 3142 3143 3144 3146 3146 3146 3147 3149 3149 3147 3148 3148 3150 3150 3152 3153 3154 3155 3155 3152 3150 3152 3154 3155 3156 3156 3155 3154 3153
3114 3115 3116 3118 3124 3123 3123 3125 3126 3129 3131 3132 3134 3134 3135 3139 3142 3142 3144 3144 3144 3145 3146 3147 3146 3144 3145 3148 3148 3149 3150 3150 3149 3148 3148 3148 3149 3150 3150 3151 3152 3151 3151 3152 3151
3114 3116 3116 3117 3118 3122 3123 3125 3127 3126 3128 3130 3132 3133 3135 3137 3138 3141 3143 3143 3143 3144 3144 3144 3144 3142 3138 3139 3141 3143 3145 3147 3147 3146 3145 3144 3146 3147 3147 3147 3149 3149 3146 3148 3148
3112 3113 3113 3117 3118 3120 3121 3123 3125 3127 3127 3129 3131 3132 3134 3137 3138 3139 3141 3142 3142 3142 3143 3144 3142 3142 3141 3141 3141 3141 3141 3141 3144 3143 3143 3141 3143 3145 3145 3145 3145 3143 3142 3141 3144
3109 3111 3112 3113 3114 3117 3120 3122 3124 3125 3127 3130 3131 3131 3132 3135 3135 3137 3138 3140 3141 3141 3142 3142 3141 3141 3139 3138 3138 3138 3138 3139 3140 3141 3142 3143 3142 3143 3142 3141 3140 3139 3139 3138 3139
3107 3107 3109 3110 3113 3116 3119 3121 3122 3122 3125 3125 3126 3129 3131 3130 3130 3132 3134 3135 3137 3138 3140 3140 3139 3138 3135 3135 3136 3135 3133 3134 3136 3138 3140 3139 3139 3139 3139 3138 3135 3135 3136 3136 3137